Regional Weather Roundup
Issued by NWS

Home | Current Version | Previous Version | Graphics & Text | Print | Product List | Glossary On
Versions: 1 2 3 4 5 6 7 8 9 10 11 12 13 14 15 16 17 18 19 20 21 22 23 24 25 26 27 28 29 30 31 32 33 34 35 36 37 38 39 40 41 42 43 44 45 46 47 48 49 50
250
ASUS45 KBOU 060307
RWRCO

WEATHER ROUNDUP FOR COLORADO
NATIONAL WEATHER SERVICE DENVER/BOULDER CO
900 PM MDT THU MAY 05 2016

NOTE: "FAIR" INDICATES FEW OR NO CLOUDS BELOW 12000 FEET WITH NO
SIGNIFICANT WEATHER AND/OR OBSTRUCTIONS TO VISIBILITY.

COZ001>005-013-030-031-060400-
...NORTHWEST COLORADO...

CITY           SKY/WX    TMP DP  RH WIND       PRES   REMARKS
CRAIG          FAIR      53  37  54 CALM      30.00R
HAYDEN         FAIR      61  30  31 E5        30.03R
MEEKER         FAIR      58  37  45 CALM      30.00R
MOUNT WERNER   NOT AVBL
STEAMBOAT SPGS FAIR      64  26  23 NE10      30.05R
WALDEN         MOCLDY    50  30  46 SE8       30.18R
$$

COZ006>008-011-060400-
...WEST CENTRAL VALLEYS...

CITY           SKY/WX    TMP DP  RH WIND       PRES   REMARKS
GRAND JUNCTION FAIR      67  36  31 SW8       29.87R
MONTROSE       FAIR      67  31  26 S6        29.97R
EAGLE          FAIR      64  27  24 N3        30.04R
RIFLE          FAIR      64  33  31 SE8       29.94R
DELTA          NOT AVBL
NUCLA          NOT AVBL
$$

COZ017>023-064>068-060400-
...SOUTHWEST COLORADO...

CITY           SKY/WX    TMP DP  RH WIND       PRES   REMARKS
DURANGO        FAIR      64  24  21 SE9       30.04R
CORTEZ         MOCLDY    73  28  18 S8G32     29.95F
PAGOSA SPRINGS FAIR      56  30  37 NE6       30.14S
TELLURIDE      FAIR      56  22  26 E8        30.21R
WOLF CREEK PAS FAIR      41  21  45 S9        30.44S
$$

COZ009-010-012-014-032>034-037-058>063-060400-
...CENTRAL COLORADO...

CITY           SKY/WX    TMP DP  RH WIND       PRES   REMARKS
ASPEN          FAIR      61  25  25 SE9       30.12R
BUENA VISTA    FAIR      56  25  30 E9        30.17R
COPPER MTN     NOT AVBL
BERTHOUD PASS  FAIR      34  27  75 E23G32    30.44R WCI  22
COTTONWOOD PAS FAIR      59  10  14 SE9       30.28R
GUNNISON       FAIR      55  25  30 SE7       30.15R
KREMMLING      FAIR      55  28  35 SE3       30.12R
LEADVILLE      FAIR      51  14  22 SE7       30.26R
MONARCH PASS   FAIR      43  18  36 S13G20    30.52S
SALIDA         FAIR      59  24  26 SW3       30.21R
SUNLIGHT       FAIR      46  21  36 CALM      30.33S
WILKERSON PASS FAIR      43  27  52 S7        30.40R
$$

COZ069>075-060400-
...SAN LUIS VALLEY/SANGRE DE CRISTO MOUNTAINS...

CITY           SKY/WX    TMP DP  RH WIND       PRES   REMARKS
ALAMOSA        FAIR      55  34  45 S8        30.13R
LA VETA PASS   CLOUDY    48  23  37 E7        30.34R
SAGUACHE       FAIR      54  30  40 CALM      30.17R
$$

COZ035-036-038>040-060400-
...NORTHERN COLORADO FRONT RANGE...

CITY           SKY/WX    TMP DP  RH WIND       PRES   REMARKS
DENVER INTL AP MOCLDY    64  37  36 SE15      30.01S
DMNS CITY PARK   N/A     70  33  25 SE17      30.01R
AURORA         FAIR      61  41  47 SE13      30.04R
FRONT RANGE AP MOCLDY    63  37  39 SE14      30.03R
ERIE MUNI ARPT FAIR      69  36  29 SE10      30.00R
BOULDER MUN AP FAIR      68  37  32 CALM      30.01R
CENTENNIAL     FAIR      65  35  33 SE9       30.04R
BROOMFIELD     MOCLDY    72  34  25 E13       30.03R
FORT COLLINS   FAIR      66  37  34 SE9       30.00R
LONGMONT       FAIR      59  44  57 NW7       30.02R
$$

COZ041-046-047-076>085-087-088-060400-
...PIKES PEAK/PALMER DIVIDE AND SOUTHERN FOOTHILLS...

CITY           SKY/WX    TMP DP  RH WIND       PRES   REMARKS
COLO. SPRINGS  FAIR      63  33  32 E12       30.10R
A. F. ACADEMY  NOT AVBL
SCHRIEVER AFB  NOT AVBL
ELLICOTT       FAIR     N/A N/A N/A SE14      30.09R
FALCON         NOT AVBL
FORT CARSON    FAIR      66  33  28 S5        30.07R
LIMON          FAIR      54  40  59 SE8       30.07R
MONUMENT HILL  FAIR      54  34  47 S13       30.16R
TRINIDAD       FAIR      62  34  35 SE7       30.05R
$$

COZ042>045-048>051-090-091-060400-
...NORTHEAST COLORADO...

CITY           SKY/WX    TMP DP  RH WIND       PRES   REMARKS
GREELEY ARPT   FAIR      63  43  48 E6        29.99R
AKRON          FAIR      62  42  47 S15       30.02R
BURLINGTON     FAIR      60  43  53 SE12      30.04R
WRAY           NOT AVBL
STERLING       FAIR      63  45  51 SW3       29.97R
HOLYOKE        NOT AVBL
FORT MORGAN    FAIR      65  38  36 SE10      30.00R
$$

COZ086-089-092>099-060400-
...SOUTHEAST COLORADO...

CITY           SKY/WX    TMP DP  RH WIND       PRES   REMARKS
PUEBLO         FAIR      67  38  34 E8        29.99R
LA JUNTA       FAIR      69  43  38 E12       29.98R
LAMAR          FAIR      68  46  45 SE14      29.97R
SPRINGFIELD      N/A     62  44  51 SE15      30.03R
$$




USA.gov is the U.S. government's official web portal to all federal, state and local government web resources and services.